Flag for Sudan Weather past 2 weeks in Port Sudan, Sudan

Now
86 °F

Sunny.


Feels Like: 89 °F
Forecast: 75 / 103 °F
Wind: 8 mph from Northwest

Location: Jeddah King Abdul Aziz International Airport

Current Time: Jun 2, 2015 at 8:47:20 AM

Latest Report: Jun 2, 2015 at 8:00 AM


Visibility: 10 mi

Pressure: 29.77 "Hg

Humidity: 55%

Dew point: 68 °F

Location of Port SudanLocation

Historic Weather in Port Sudan — Graph

°F

Port Sudan temperature yesterday

Maximum temperature yesterday: 93 °F (at 1:00 PM)
Minimum temperature yesterday: 81 °F (at 5:00 AM)
Average temperature yesterday: 87 °F

Past Weeks' High & Low Weather Summary

 TemperatureHumidityPressure
High106 °F (May 20, 1:00 PM)84% (May 30, 6:00 AM)29.80 "Hg (May 30, 6:00 AM)
Low79 °F (Jun 2, 5:00 AM)14% (May 27, 1:00 PM)29.62 "Hg (Jun 1, 2:00 AM)
Average90 °F48%29.71 "Hg
* Reported May 18 8:00 AM — Jun 2 8:00 AM, Port Sudan, Weather by CustomWeather, © 2015

Note: Actual official high and low records may vary slightly from our data, if they occured in-between our weather recording intervals... More about our weather records

Advertising

Port Sudan weather history for previous 24 hours

 ConditionsComfort  
Time TempWeatherWind HumidityBarometerVisibility
8:00 AM
Tue, Jun 2
86 °FSunny.8 mph55%29.77 "Hg10 mi
6:00 AM81 °FSunny.5 mph58%29.71 "Hg10 mi
5:00 AM79 °FClear.No wind61%29.71 "Hg10 mi
4:00 AM81 °FClear.No wind58%29.71 "Hg10 mi
3:00 AM81 °FClear.No wind58%29.71 "Hg10 mi
2:00 AM84 °FClear.No wind51%29.71 "Hg10 mi
1:00 AM84 °FClear.No wind51%29.71 "Hg10 mi
12:00 AM86 °FClear.7 mph49%29.71 "Hg10 mi
11:00 PM
Mon, Jun 1
86 °FClear.7 mph49%29.71 "Hg10 mi
10:00 PM86 °FClear.9 mph55%29.71 "Hg10 mi
9:00 PM86 °FClear.9 mph59%29.71 "Hg10 mi
8:00 PM88 °FClear.14 mph55%29.68 "Hg10 mi
7:00 PM90 °FSunny.12 mph52%29.65 "Hg10 mi
6:00 PM90 °FSunny.16 mph52%29.65 "Hg10 mi
5:00 PM91 °FSunny.18 mph46%29.65 "Hg10 mi
4:00 PM91 °FSunny.16 mph49%29.65 "Hg10 mi
3:00 PM91 °FSunny.16 mph52%29.65 "Hg10 mi
2:00 PM91 °FSunny.14 mph46%29.65 "Hg10 mi
1:00 PM93 °FSunny.12 mph44%29.68 "Hg10 mi
12:00 PM91 °FSunny.16 mph46%29.68 "Hg10 mi
11:00 AM91 °FSunny.12 mph46%29.68 "Hg10 mi
10:00 AM90 °FSunny.9 mph52%29.71 "Hg10 mi
9:00 AM88 °FPassing clouds.9 mph55%29.71 "HgN/A
8:00 AM84 °FPassing clouds.9 mph66%29.68 "HgN/A
Weather by CustomWeather, © 2015

See weather overviewHow to use our weather pages